Location: Diebersbach
(48.5163°N, 8.0558°E)
Time: 08:22:56
(UTC+00:00)

IRS-1D - Pass Details

Date: 20 June 2021
Orbit: 739 x 817 km, 98.6° (Epoch: 01 August)

Event Time Altitude Azimuth Distance (km) Brightness Sun altitude
Rises 01:58:33 0° 15° (NNE) 3,288 8.3 -10.7°
Reaches altitude 10° 02:00:54 10° 16° (NNE) 2,343 7.3 -10.5°
Maximum altitude 02:06:04 84° 104° (ESE) 778 3.6 -10.0°
Drops below altitude 10° 02:11:06 10° 194° (SSW) 2,277 5.4 -9.5°
Enters shadow 02:11:12 10° 194° (SSW) 2,314 5.4 -9.5°
